Time,TemperatureF,DewpointF,PressureIn,WindDirection,WindDirectionDegrees,WindSpeedMPH,WindSpeedGustMPH,Humidity,HourlyPrecipIn,Conditions,Clouds,dailyrainin,SolarRadiationWatts/m^2,SoftwareType,DateUTC
2013-03-28 00:13:00,37.2,23.0,30.18,ENE,78,0.0,-999.0,58,-99.99,,,0.00,0,weatherlink.com 1.10,2013-03-28 06:13:00,
2013-03-28 00:27:00,36.4,24.0,30.17,ENE,78,0.0,-999.0,61,-99.99,,,0.00,0,weatherlink.com 1.10,2013-03-28 06:27:00,
2013-03-28 00:43:00,35.5,24.0,30.18,ENE,78,0.0,-999.0,62,-99.99,,,0.00,0,weatherlink.com 1.10,2013-03-28 06:43:00,
2013-03-28 00:58:00,34.6,23.0,30.18,ENE,78,0.0,-999.0,62,-99.99,,,0.00,0,weatherlink.com 1.10,2013-03-28 06:58:00,
2013-03-28 01:13:00,34.4,23.0,30.17,ENE,78,0.0,-999.0,63,-99.99,,,0.00,0,weatherlink.com 1.10,2013-03-28 07:13:00,
2013-03-28 01:28:00,34.7,23.0,30.17,ENE,78,0.0,-999.0,62,-99.99,,,0.00,0,weatherlink.com 1.10,2013-03-28 07:28:00,
2013-03-28 01:43:00,35.0,23.0,30.17,ENE,78,0.0,-999.0,62,-99.99,,,0.00,0,weatherlink.com 1.10,2013-03-28 07:43:00,
2013-03-28 01:58:00,35.0,23.0,30.16,ENE,78,1.0,-999.0,63,-99.99,,,0.00,0,weatherlink.com 1.10,2013-03-28 07:58:00,
2013-03-28 02:12:00,34.4,23.0,30.15,ENE,78,0.0,-999.0,64,-99.99,,,0.00,0,weatherlink.com 1.10,2013-03-28 08:12:00,
2013-03-28 02:28:00,33.7,23.0,30.15,ENE,78,0.0,-999.0,66,-99.99,,,0.00,0,weatherlink.com 1.10,2013-03-28 08:28:00,
2013-03-28 02:43:00,33.3,23.0,30.15,ENE,78,0.0,-999.0,67,-99.99,,,0.00,0,weatherlink.com 1.10,2013-03-28 08:43:00,
2013-03-28 02:58:00,33.0,23.0,30.14,ENE,78,0.0,-999.0,67,-99.99,,,0.00,0,weatherlink.com 1.10,2013-03-28 08:58:00,
2013-03-28 03:13:00,32.5,23.0,30.14,ENE,78,0.0,-999.0,68,-99.99,,,0.00,0,weatherlink.com 1.10,2013-03-28 09:13:00,
2013-03-28 03:28:00,32.5,23.0,30.14,ENE,78,0.0,-999.0,68,-99.99,,,0.00,0,weatherlink.com 1.10,2013-03-28 09:28:00,
2013-03-28 03:43:00,32.0,23.0,30.14,ENE,78,0.0,-999.0,69,-99.99,,,0.00,0,weatherlink.com 1.10,2013-03-28 09:43:00,
2013-03-28 03:58:00,31.5,23.0,30.14,ENE,78,0.0,-999.0,70,-99.99,,,0.00,0,weatherlink.com 1.10,2013-03-28 09:58:00,
2013-03-28 04:13:00,31.7,22.0,30.13,ENE,78,0.0,-999.0,68,-99.99,,,0.00,0,weatherlink.com 1.10,2013-03-28 10:13:00,
2013-03-28 04:28:00,31.6,22.0,30.13,ENE,78,0.0,-999.0,69,-99.99,,,0.00,0,weatherlink.com 1.10,2013-03-28 10:28:00,
2013-03-28 04:43:00,31.3,22.0,30.13,ENE,78,0.0,-999.0,69,-99.99,,,0.00,0,weatherlink.com 1.10,2013-03-28 10:43:00,
2013-03-28 04:58:00,30.8,22.0,30.13,ENE,78,0.0,-999.0,71,-99.99,,,0.00,0,weatherlink.com 1.10,2013-03-28 10:58:00,
2013-03-28 05:13:00,30.5,22.0,30.12,ENE,78,0.0,-999.0,70,-99.99,,,0.00,0,weatherlink.com 1.10,2013-03-28 11:13:00,
2013-03-28 05:29:00,30.1,22.0,30.12,ENE,78,0.0,-999.0,71,-99.99,,,0.00,0,weatherlink.com 1.10,2013-03-28 11:29:00,
2013-03-28 05:44:00,29.6,22.0,30.12,ENE,78,0.0,-999.0,72,-99.99,,,0.00,0,weatherlink.com 1.10,2013-03-28 11:44:00,
2013-03-28 05:59:00,29.4,22.0,30.12,ENE,78,0.0,-999.0,73,-99.99,,,0.00,0,weatherlink.com 1.10,2013-03-28 11:59:00,
2013-03-28 06:14:00,29.1,21.0,30.13,ENE,78,0.0,-999.0,73,-99.99,,,0.00,0,weatherlink.com 1.10,2013-03-28 12:14:00,
2013-03-28 06:29:00,28.7,21.0,30.13,ENE,78,0.0,-999.0,74,-99.99,,,0.00,0,weatherlink.com 1.10,2013-03-28 12:29:00,
2013-03-28 06:44:00,28.5,22.0,30.13,ENE,78,0.0,-999.0,75,-99.99,,,0.00,0,weatherlink.com 1.10,2013-03-28 12:44:00,
2013-03-28 06:59:00,29.3,23.0,30.13,ENE,78,0.0,-999.0,76,-99.99,,,0.00,12,weatherlink.com 1.10,2013-03-28 12:59:00,
2013-03-28 07:14:00,30.4,23.0,30.13,ENE,78,0.0,-999.0,73,-99.99,,,0.00,30,weatherlink.com 1.10,2013-03-28 13:14:00,
2013-03-28 07:29:00,31.5,24.0,30.14,ENE,78,0.0,-999.0,74,-99.99,,,0.00,67,weatherlink.com 1.10,2013-03-28 13:29:00,
2013-03-28 07:44:00,34.4,27.0,30.14,ENE,78,0.0,-999.0,74,-99.99,,,0.00,113,weatherlink.com 1.10,2013-03-28 13:44:00,
2013-03-28 07:59:00,37.5,29.0,30.14,ENE,78,0.0,-999.0,71,-99.99,,,0.00,167,weatherlink.com 1.10,2013-03-28 13:59:00,
2013-03-28 08:14:00,40.4,29.0,30.14,ENE,78,0.0,-999.0,65,-99.99,,,0.00,169,weatherlink.com 1.10,2013-03-28 14:14:00,
2013-03-28 08:29:00,42.6,29.0,30.14,ENE,78,0.0,-999.0,60,-99.99,,,0.00,239,weatherlink.com 1.10,2013-03-28 14:29:00,
2013-03-28 08:44:00,44.6,30.0,30.14,ENE,78,2.0,-999.0,56,-99.99,,,0.00,243,weatherlink.com 1.10,2013-03-28 14:44:00,
2013-03-28 08:59:00,46.4,28.0,30.14,ENE,78,0.0,-999.0,50,-99.99,,,0.00,320,weatherlink.com 1.10,2013-03-28 14:59:00,
2013-03-28 09:14:00,48.3,27.0,30.15,ENE,78,2.0,-999.0,44,-99.99,,,0.00,283,weatherlink.com 1.10,2013-03-28 15:14:00,
2013-03-28 09:30:00,49.2,28.0,30.15,NNE,13,2.0,-999.0,44,-99.99,,,0.00,332,weatherlink.com 1.10,2013-03-28 15:30:00,
2013-03-28 09:44:00,49.7,29.0,30.15,NNE,13,2.0,-999.0,46,-99.99,,,0.00,287,weatherlink.com 1.10,2013-03-28 15:44:00,
2013-03-28 09:59:00,50.6,30.0,30.15,NNE,13,2.0,-999.0,45,-99.99,,,0.00,385,weatherlink.com 1.10,2013-03-28 15:59:00,
2013-03-28 10:14:00,50.5,30.0,30.16,NNE,13,4.0,-999.0,46,-99.99,,,0.00,258,weatherlink.com 1.10,2013-03-28 16:14:00,
2013-03-28 10:30:00,50.8,29.0,30.16,NNE,12,1.0,-999.0,43,-99.99,,,0.00,554,weatherlink.com 1.10,2013-03-28 16:30:00,
2013-03-28 10:45:00,51.8,27.0,30.16,North,9,5.0,-999.0,39,-99.99,,,0.00,563,weatherlink.com 1.10,2013-03-28 16:45:00,
2013-03-28 11:00:00,52.5,28.0,30.16,North,5,2.0,-999.0,39,-99.99,,,0.00,612,weatherlink.com 1.10,2013-03-28 17:00:00,
2013-03-28 11:15:00,53.7,26.0,30.15,North,355,3.0,-999.0,34,-99.99,,,0.00,548,weatherlink.com 1.10,2013-03-28 17:15:00,
2013-03-28 11:30:00,55.2,27.0,30.15,NNE,17,5.0,-999.0,34,-99.99,,,0.00,577,weatherlink.com 1.10,2013-03-28 17:30:00,
2013-03-28 11:45:00,57.0,28.0,30.15,NNE,14,3.0,-999.0,33,-99.99,,,0.00,682,weatherlink.com 1.10,2013-03-28 17:45:00,
2013-03-28 12:00:00,58.6,30.0,30.15,North,5,3.0,-999.0,34,-99.99,,,0.00,747,weatherlink.com 1.10,2013-03-28 18:00:00,
2013-03-28 12:15:00,58.7,28.0,30.14,NNE,18,3.0,-999.0,31,-99.99,,,0.00,759,weatherlink.com 1.10,2013-03-28 18:15:00,
2013-03-28 12:30:00,58.5,29.0,30.14,NNE,26,5.0,-999.0,33,-99.99,,,0.00,770,weatherlink.com 1.10,2013-03-28 18:30:00,
2013-03-28 12:45:00,59.2,30.0,30.14,NNE,29,2.0,-999.0,33,-99.99,,,0.00,777,weatherlink.com 1.10,2013-03-28 18:45:00,
2013-03-28 13:00:00,60.4,32.0,30.13,ENE,60,3.0,-999.0,34,-99.99,,,0.00,780,weatherlink.com 1.10,2013-03-28 19:00:00,
2013-03-28 13:15:00,60.9,30.0,30.13,NE,40,0.0,-999.0,31,-99.99,,,0.00,772,weatherlink.com 1.10,2013-03-28 19:15:00,
2013-03-28 13:30:00,60.9,30.0,30.13,NE,41,3.0,-999.0,31,-99.99,,,0.00,770,weatherlink.com 1.10,2013-03-28 19:30:00,
2013-03-28 13:45:00,62.1,29.0,30.12,ESE,106,3.0,-999.0,29,-99.99,,,0.00,761,weatherlink.com 1.10,2013-03-28 19:45:00,
2013-03-28 14:00:00,62.8,30.0,30.12,East,99,0.0,-999.0,29,-99.99,,,0.00,751,weatherlink.com 1.10,2013-03-28 20:00:00,
2013-03-28 14:15:00,63.4,29.0,30.12,NE,52,7.0,-999.0,27,-99.99,,,0.00,733,weatherlink.com 1.10,2013-03-28 20:15:00,
2013-03-28 14:30:00,63.4,29.0,30.12,South,178,0.0,-999.0,27,-99.99,,,0.00,680,weatherlink.com 1.10,2013-03-28 20:30:00,
2013-03-28 15:00:00,63.6,29.0,30.11,ESE,110,0.0,-999.0,27,-99.99,,,0.00,666,weatherlink.com 1.10,2013-03-28 21:00:00,
2013-03-28 15:15:00,64.8,30.0,30.11,ESE,109,5.0,-999.0,27,-99.99,,,0.00,594,weatherlink.com 1.10,2013-03-28 21:15:00,
2013-03-28 15:30:00,62.3,29.0,30.10,SE,125,3.0,-999.0,29,-99.99,,,0.00,547,weatherlink.com 1.10,2013-03-28 21:30:00,
2013-03-28 15:45:00,62.8,29.0,30.10,West,279,1.0,-999.0,28,-99.99,,,0.00,547,weatherlink.com 1.10,2013-03-28 21:45:00,
2013-03-28 16:00:00,64.2,30.0,30.10,South,186,0.0,-999.0,28,-99.99,,,0.00,517,weatherlink.com 1.10,2013-03-28 22:00:00,
2013-03-28 16:15:00,62.9,29.0,30.10,ESE,122,0.0,-999.0,28,-99.99,,,0.00,450,weatherlink.com 1.10,2013-03-28 22:15:00,
2013-03-28 16:30:00,64.0,29.0,30.10,SW,219,1.0,-999.0,27,-99.99,,,0.00,243,weatherlink.com 1.10,2013-03-28 22:30:00,
2013-03-28 16:45:00,62.1,28.0,30.10,SE,125,0.0,-999.0,28,-99.99,,,0.00,193,weatherlink.com 1.10,2013-03-28 22:45:00,
2013-03-28 17:00:00,61.5,29.0,30.10,SE,125,0.0,-999.0,29,-99.99,,,0.00,90,weatherlink.com 1.10,2013-03-28 23:00:00,
2013-03-28 17:15:00,60.6,29.0,30.10,SE,125,0.0,-999.0,30,-99.99,,,0.00,167,weatherlink.com 1.10,2013-03-28 23:15:00,
2013-03-28 17:30:00,61.7,29.0,30.10,SE,125,0.0,-999.0,29,-99.99,,,0.00,206,weatherlink.com 1.10,2013-03-28 23:30:00,
2013-03-28 17:45:00,61.8,30.0,30.10,SW,221,0.0,-999.0,30,-99.99,,,0.00,91,weatherlink.com 1.10,2013-03-28 23:45:00,
2013-03-28 18:01:00,61.4,30.0,30.10,East,88,2.0,-999.0,30,-99.99,,,0.00,137,weatherlink.com 1.10,2013-03-29 00:01:00,
2013-03-28 18:15:00,61.0,29.0,30.11,East,88,2.0,-999.0,30,-99.99,,,0.00,102,weatherlink.com 1.10,2013-03-29 00:15:00,
2013-03-28 18:31:00,59.9,30.0,30.11,East,97,0.0,-999.0,32,-99.99,,,0.00,60,weatherlink.com 1.10,2013-03-29 00:31:00,
2013-03-28 18:46:00,59.0,30.0,30.11,East,97,0.0,-999.0,34,-99.99,,,0.00,26,weatherlink.com 1.10,2013-03-29 00:46:00,
2013-03-28 19:01:00,57.7,30.0,30.11,East,97,0.0,-999.0,35,-99.99,,,0.00,12,weatherlink.com 1.10,2013-03-29 01:01:00,
2013-03-28 19:16:00,56.3,30.0,30.11,East,96,0.0,-999.0,37,-99.99,,,0.00,0,weatherlink.com 1.10,2013-03-29 01:16:00,
2013-03-28 19:31:00,54.6,30.0,30.11,East,96,0.0,-999.0,39,-99.99,,,0.00,0,weatherlink.com 1.10,2013-03-29 01:31:00,
2013-03-28 19:46:00,52.7,30.0,30.12,East,97,0.0,-999.0,42,-99.99,,,0.00,0,weatherlink.com 1.10,2013-03-29 01:46:00,
2013-03-28 20:01:00,51.4,29.0,30.12,East,97,0.0,-999.0,43,-99.99,,,0.00,0,weatherlink.com 1.10,2013-03-29 02:01:00,
2013-03-28 20:16:00,49.6,29.0,30.12,East,97,0.0,-999.0,46,-99.99,,,0.00,0,weatherlink.com 1.10,2013-03-29 02:16:00,
2013-03-28 20:31:00,48.3,30.0,30.13,East,97,0.0,-999.0,49,-99.99,,,0.00,0,weatherlink.com 1.10,2013-03-29 02:31:00,
2013-03-28 20:46:00,46.8,30.0,30.13,East,97,0.0,-999.0,52,-99.99,,,0.00,0,weatherlink.com 1.10,2013-03-29 02:46:00,
2013-03-28 21:01:00,45.7,28.0,30.13,East,96,0.0,-999.0,51,-99.99,,,0.00,0,weatherlink.com 1.10,2013-03-29 03:01:00,
2013-03-28 21:16:00,45.4,29.0,30.14,East,96,0.0,-999.0,52,-99.99,,,0.00,0,weatherlink.com 1.10,2013-03-29 03:16:00,
2013-03-28 21:31:00,44.5,28.0,30.14,East,97,0.0,-999.0,53,-99.99,,,0.00,0,weatherlink.com 1.10,2013-03-29 03:31:00,
2013-03-28 21:46:00,43.6,28.0,30.15,East,97,0.0,-999.0,55,-99.99,,,0.00,0,weatherlink.com 1.10,2013-03-29 03:46:00,
2013-03-28 22:01:00,43.2,28.0,30.14,East,97,0.0,-999.0,55,-99.99,,,0.00,0,weatherlink.com 1.10,2013-03-29 04:01:00,
2013-03-28 22:16:00,43.5,28.0,30.14,East,97,0.0,-999.0,54,-99.99,,,0.00,0,weatherlink.com 1.10,2013-03-29 04:16:00,
2013-03-28 22:31:00,43.8,28.0,30.14,East,96,0.0,-999.0,55,-99.99,,,0.00,0,weatherlink.com 1.10,2013-03-29 04:31:00,
2013-03-28 22:46:00,43.5,29.0,30.14,East,96,0.0,-999.0,56,-99.99,,,0.00,0,weatherlink.com 1.10,2013-03-29 04:46:00,
2013-03-28 23:16:00,43.1,28.0,30.14,East,97,0.0,-999.0,55,-99.99,,,0.00,0,weatherlink.com 1.10,2013-03-29 05:16:00,
2013-03-28 23:30:00,43.2,29.0,30.14,East,97,0.0,-999.0,57,-99.99,,,0.00,0,weatherlink.com 1.10,2013-03-29 05:30:00,
2013-03-28 23:46:00,42.2,28.0,30.14,East,97,0.0,-999.0,57,-99.99,,,0.00,0,weatherlink.com 1.10,2013-03-29 05:46:00,